Time,TemperatureF,DewpointF,PressureIn,WindDirection,WindDirectionDegrees,WindSpeedMPH,WindSpeedGustMPH,Humidity,HourlyPrecipIn,Conditions,Clouds,dailyrainin,SoftwareType,DateUTC
2013-03-08 00:01:00,30.1,28.6,30.06,NW,319,0.0,13.0,94,0.00,,,0.00,Wunderground v.1.15,2013-03-08 05:01:00,
2013-03-08 00:05:00,30.1,28.6,30.06,NNE,13,0.0,13.0,94,0.00,,,0.00,Wunderground v.1.15,2013-03-08 05:05:00,
2013-03-08 00:07:00,30.3,28.8,30.06,NNE,28,0.0,13.0,94,0.00,,,0.00,Wunderground v.1.15,2013-03-08 05:07:00,
2013-03-08 00:11:00,30.3,28.8,30.06,NNW,337,0.0,13.0,94,0.00,,,0.00,Wunderground v.1.15,2013-03-08 05:11:00,
2013-03-08 00:16:00,30.3,28.8,30.06,WNW,289,0.0,13.0,94,0.00,,,0.00,Wunderground v.1.15,2013-03-08 05:16:00,
2013-03-08 00:23:00,30.3,28.8,30.06,North,5,0.0,13.0,94,0.00,,,0.00,Wunderground v.1.15,2013-03-08 05:23:00,
2013-03-08 00:29:00,30.3,28.8,30.06,NE,49,0.0,13.0,94,0.00,,,0.00,Wunderground v.1.15,2013-03-08 05:29:00,
2013-03-08 00:34:00,30.3,28.8,30.06,NNW,347,0.0,13.0,94,0.00,,,0.00,Wunderground v.1.15,2013-03-08 05:34:00,
2013-03-08 00:41:00,30.3,28.8,30.06,NNW,346,0.0,13.0,94,0.00,,,0.00,Wunderground v.1.15,2013-03-08 05:41:00,
2013-03-08 00:47:00,30.1,28.6,30.06,NNW,331,0.0,13.0,94,0.00,,,0.00,Wunderground v.1.15,2013-03-08 05:47:00,
2013-03-08 00:52:00,30.1,28.6,30.06,NW,308,0.0,13.0,94,0.00,,,0.00,Wunderground v.1.15,2013-03-08 05:52:00,
2013-03-08 00:58:00,30.1,28.6,30.06,North,360,0.0,13.0,94,0.00,,,0.00,Wunderground v.1.15,2013-03-08 05:58:00,
2013-03-08 01:05:00,30.1,28.6,30.06,NE,46,0.0,13.0,94,0.00,,,0.00,Wunderground v.1.15,2013-03-08 06:05:00,
2013-03-08 01:10:00,30.1,28.6,30.06,NW,325,0.0,13.0,94,0.00,,,0.00,Wunderground v.1.15,2013-03-08 06:10:00,
2013-03-08 01:16:00,30.0,28.5,30.06,North,351,0.0,13.0,94,0.00,,,0.00,Wunderground v.1.15,2013-03-08 06:16:00,
2013-03-08 01:22:00,30.0,28.5,30.06,WNW,292,0.0,13.0,94,0.00,,,0.00,Wunderground v.1.15,2013-03-08 06:22:00,
2013-03-08 01:28:00,30.0,28.5,30.06,NNW,327,0.0,13.0,94,0.00,,,0.00,Wunderground v.1.15,2013-03-08 06:28:00,
2013-03-08 01:34:00,30.0,28.5,30.06,NNE,14,0.0,13.0,94,0.00,,,0.00,Wunderground v.1.15,2013-03-08 06:34:00,
2013-03-08 01:40:00,29.8,28.3,30.06,North,351,0.0,13.0,94,0.00,,,0.00,Wunderground v.1.15,2013-03-08 06:40:00,
2013-03-08 01:46:00,29.8,28.3,30.06,North,351,0.0,13.0,94,0.00,,,0.00,Wunderground v.1.15,2013-03-08 06:46:00,
2013-03-08 01:52:00,29.8,28.3,30.05,NNW,342,0.0,13.0,94,0.00,,,0.00,Wunderground v.1.15,2013-03-08 06:52:00,
2013-03-08 01:58:00,29.8,28.3,30.05,North,355,0.0,13.0,94,0.00,,,0.00,Wunderground v.1.15,2013-03-08 06:58:00,
2013-03-08 02:04:00,29.8,28.3,30.05,NW,313,0.0,13.0,94,0.00,,,0.00,Wunderground v.1.15,2013-03-08 07:04:00,
2013-03-08 02:10:00,29.8,28.3,30.05,NNW,346,0.0,13.0,94,0.00,,,0.00,Wunderground v.1.15,2013-03-08 07:10:00,
2013-03-08 02:16:00,29.8,28.3,30.05,NNW,347,0.0,13.0,94,0.00,,,0.00,Wunderground v.1.15,2013-03-08 07:16:00,
2013-03-08 02:22:00,29.8,28.3,30.04,NW,325,0.0,13.0,94,0.00,,,0.00,Wunderground v.1.15,2013-03-08 07:22:00,
2013-03-08 02:28:00,29.8,28.3,30.04,NNW,347,0.0,13.0,94,0.00,,,0.00,Wunderground v.1.15,2013-03-08 07:28:00,
2013-03-08 02:34:00,29.8,28.3,30.04,NW,325,0.0,13.0,94,0.00,,,0.00,Wunderground v.1.15,2013-03-08 07:34:00,
2013-03-08 02:40:00,29.8,28.3,30.04,NE,38,0.0,13.0,94,0.00,,,0.00,Wunderground v.1.15,2013-03-08 07:40:00,
2013-03-08 02:46:00,29.8,28.3,30.03,NNW,329,0.0,13.0,94,0.00,,,0.00,Wunderground v.1.15,2013-03-08 07:46:00,
2013-03-08 02:52:00,29.8,28.3,30.03,NNW,343,0.0,13.0,94,0.00,,,0.00,Wunderground v.1.15,2013-03-08 07:52:00,
2013-03-08 02:58:00,29.8,28.3,30.03,WNW,286,0.0,13.0,94,0.00,,,0.00,Wunderground v.1.15,2013-03-08 07:58:00,
2013-03-08 03:04:00,29.8,28.3,30.03,NW,306,0.0,13.0,94,0.00,,,0.00,Wunderground v.1.15,2013-03-08 08:04:00,
2013-03-08 03:10:00,29.8,28.3,30.03,NNW,345,0.0,13.0,94,0.00,,,0.00,Wunderground v.1.15,2013-03-08 08:10:00,
2013-03-08 03:16:00,29.8,28.3,30.03,North,360,0.0,13.0,94,0.00,,,0.00,Wunderground v.1.15,2013-03-08 08:16:00,
2013-03-08 03:22:00,29.8,28.3,30.03,North,360,0.0,13.0,94,0.00,,,0.00,Wunderground v.1.15,2013-03-08 08:22:00,
2013-03-08 03:28:00,29.7,28.2,30.02,NNE,16,0.0,13.0,94,0.00,,,0.00,Wunderground v.1.15,2013-03-08 08:28:00,
2013-03-08 03:34:00,29.7,28.2,30.02,North,360,0.0,13.0,94,0.00,,,0.00,Wunderground v.1.15,2013-03-08 08:34:00,
2013-03-08 03:40:00,29.7,28.2,30.02,North,355,0.0,13.0,94,0.00,,,0.00,Wunderground v.1.15,2013-03-08 08:40:00,
2013-03-08 03:46:00,29.5,28.0,30.02,North,360,0.0,13.0,94,0.00,,,0.00,Wunderground v.1.15,2013-03-08 08:46:00,
2013-03-08 03:52:00,29.5,28.0,30.02,NNW,339,0.0,13.0,94,0.00,,,0.00,Wunderground v.1.15,2013-03-08 08:52:00,
2013-03-08 03:58:00,29.5,28.0,30.02,NNE,13,0.0,13.0,94,0.00,,,0.00,Wunderground v.1.15,2013-03-08 08:58:00,
2013-03-08 04:04:00,29.4,27.9,30.02,NW,315,0.0,13.0,94,0.00,,,0.00,Wunderground v.1.15,2013-03-08 09:04:00,
2013-03-08 04:10:00,29.4,27.9,30.02,NNW,341,0.0,13.0,94,0.00,,,0.00,Wunderground v.1.15,2013-03-08 09:10:00,
2013-03-08 04:16:00,29.4,27.9,30.02,NNE,12,0.0,13.0,94,0.00,,,0.00,Wunderground v.1.15,2013-03-08 09:16:00,
2013-03-08 04:22:00,29.4,27.9,30.02,NNW,327,0.0,13.0,94,0.00,,,0.00,Wunderground v.1.15,2013-03-08 09:22:00,
2013-03-08 04:28:00,29.3,27.8,30.01,NE,55,0.0,13.0,94,0.00,,,0.00,Wunderground v.1.15,2013-03-08 09:28:00,
2013-03-08 04:34:00,29.3,27.8,30.02,North,351,0.0,13.0,94,0.00,,,0.00,Wunderground v.1.15,2013-03-08 09:34:00,
2013-03-08 04:40:00,29.3,27.8,30.02,NNW,345,0.0,13.0,94,0.00,,,0.00,Wunderground v.1.15,2013-03-08 09:40:00,
2013-03-08 04:46:00,29.3,27.8,30.02,North,360,0.0,13.0,94,0.00,,,0.00,Wunderground v.1.15,2013-03-08 09:46:00,
2013-03-08 04:52:00,29.3,27.8,30.02,NNW,331,0.0,13.0,94,0.00,,,0.00,Wunderground v.1.15,2013-03-08 09:52:00,
2013-03-08 04:58:00,29.1,27.6,30.02,NW,319,0.0,13.0,94,0.00,,,0.00,Wunderground v.1.15,2013-03-08 09:58:00,
2013-03-08 05:04:00,29.1,27.6,30.02,NNW,334,1.0,13.0,94,0.00,,,0.00,Wunderground v.1.15,2013-03-08 10:04:00,
2013-03-08 05:10:00,29.1,27.6,30.02,NW,319,4.0,13.0,94,0.00,,,0.00,Wunderground v.1.15,2013-03-08 10:10:00,
2013-03-08 05:16:00,29.1,27.6,30.02,NNE,33,4.0,13.0,94,0.00,,,0.00,Wunderground v.1.15,2013-03-08 10:16:00,
2013-03-08 05:22:00,29.0,27.5,30.02,North,5,4.0,13.0,94,0.00,,,0.00,Wunderground v.1.15,2013-03-08 10:22:00,
2013-03-08 05:28:00,29.0,27.5,30.02,NNE,19,5.0,5.0,94,0.00,,,0.00,Wunderground v.1.15,2013-03-08 10:28:00,
2013-03-08 05:34:00,29.0,27.5,30.02,NW,318,4.0,13.0,94,0.00,,,0.00,Wunderground v.1.15,2013-03-08 10:34:00,
2013-03-08 05:40:00,29.0,27.0,30.02,NW,316,4.0,5.0,92,0.00,,,0.00,Wunderground v.1.15,2013-03-08 10:40:00,
2013-03-08 05:46:00,29.0,27.5,30.02,North,351,6.0,13.0,94,0.00,,,0.00,Wunderground v.1.15,2013-03-08 10:46:00,
2013-03-08 05:52:00,29.0,27.7,30.02,North,360,5.0,13.0,95,0.00,,,0.00,Wunderground v.1.15,2013-03-08 10:52:00,
2013-03-08 05:57:00,29.0,27.7,30.02,North,9,5.0,13.0,95,0.00,,,0.00,Wunderground v.1.15,2013-03-08 10:57:00,
2013-03-08 06:02:00,29.0,27.7,30.02,NE,40,5.0,13.0,95,0.00,,,0.00,Wunderground v.1.15,2013-03-08 11:02:00,
2013-03-08 06:09:00,29.0,27.7,30.02,NNE,23,5.0,13.0,95,0.00,,,0.00,Wunderground v.1.15,2013-03-08 11:09:00,
2013-03-08 06:15:00,28.8,27.3,30.02,NW,311,7.0,13.0,94,0.00,,,0.00,Wunderground v.1.15,2013-03-08 11:15:00,
2013-03-08 06:20:00,28.8,27.3,30.02,NNW,345,7.0,14.0,94,0.00,,,0.00,Wunderground v.1.15,2013-03-08 11:20:00,
2013-03-08 06:26:00,29.0,27.5,30.02,WNW,286,7.0,14.0,94,0.00,,,0.00,Wunderground v.1.15,2013-03-08 11:26:00,
2013-03-08 06:33:00,29.0,27.5,30.02,North,360,5.0,13.0,94,0.00,,,0.00,Wunderground v.1.15,2013-03-08 11:33:00,
2013-03-08 06:38:00,29.0,27.5,30.02,NW,305,5.0,13.0,94,0.00,,,0.00,Wunderground v.1.15,2013-03-08 11:38:00,
2013-03-08 06:44:00,29.0,27.5,30.02,ENE,64,6.0,13.0,94,0.00,,,0.00,Wunderground v.1.15,2013-03-08 11:44:00,
2013-03-08 06:51:00,29.1,27.6,30.03,North,360,5.0,13.0,94,0.00,,,0.00,Wunderground v.1.15,2013-03-08 11:51:00,
2013-03-08 06:57:00,29.1,27.6,30.03,NNW,340,5.0,13.0,94,0.00,,,0.00,Wunderground v.1.15,2013-03-08 11:57:00,
2013-03-08 07:02:00,29.1,27.8,30.03,NW,321,4.0,13.0,95,0.00,,,0.00,Wunderground v.1.15,2013-03-08 12:02:00,
2013-03-08 07:08:00,29.3,28.0,30.03,North,9,4.0,13.0,95,0.00,,,0.00,Wunderground v.1.15,2013-03-08 12:08:00,
2013-03-08 07:14:00,29.3,28.0,30.03,WNW,294,4.0,13.0,95,0.00,,,0.00,Wunderground v.1.15,2013-03-08 12:14:00,
2013-03-08 07:21:00,29.3,27.8,30.03,North,360,2.0,13.0,94,0.00,,,0.00,Wunderground v.1.15,2013-03-08 12:21:00,
2013-03-08 07:26:00,29.3,27.8,30.04,NNW,335,3.0,13.0,94,0.00,,,0.00,Wunderground v.1.15,2013-03-08 12:26:00,
2013-03-08 07:32:00,29.3,27.8,30.03,NW,323,5.0,13.0,94,0.00,,,0.00,Wunderground v.1.15,2013-03-08 12:32:00,
2013-03-08 07:39:00,29.3,27.8,30.03,NW,319,6.0,16.0,94,0.00,,,0.00,Wunderground v.1.15,2013-03-08 12:39:00,
2013-03-08 07:44:00,29.3,27.8,30.03,NE,36,6.0,16.0,94,0.00,,,0.00,Wunderground v.1.15,2013-03-08 12:44:00,
2013-03-08 07:50:00,29.4,27.9,30.03,WNW,302,4.0,13.0,94,0.00,,,0.00,Wunderground v.1.15,2013-03-08 12:50:00,
2013-03-08 07:56:00,29.4,27.9,30.03,North,355,4.0,13.0,94,0.00,,,0.00,Wunderground v.1.15,2013-03-08 12:56:00,
2013-03-08 08:02:00,29.4,27.9,30.03,North,360,4.0,15.0,94,0.00,,,0.00,Wunderground v.1.15,2013-03-08 13:02:00,
2013-03-08 08:08:00,29.4,27.9,30.03,WNW,297,5.0,5.0,94,0.00,,,0.00,Wunderground v.1.15,2013-03-08 13:08:00,
2013-03-08 08:14:00,29.5,28.0,30.03,North,355,4.0,13.0,94,0.00,,,0.00,Wunderground v.1.15,2013-03-08 13:14:00,
2013-03-08 08:20:00,29.5,28.0,30.04,NNW,348,4.0,13.0,94,0.00,,,0.00,Wunderground v.1.15,2013-03-08 13:20:00,
2013-03-08 08:26:00,29.5,28.0,30.04,NNW,331,4.0,13.0,94,0.00,,,0.00,Wunderground v.1.15,2013-03-08 13:26:00,
2013-03-08 08:32:00,29.5,28.0,30.04,North,360,4.0,13.0,94,0.00,,,0.00,Wunderground v.1.15,2013-03-08 13:32:00,
2013-03-08 08:38:00,29.5,28.0,30.04,North,360,4.0,13.0,94,0.00,,,0.00,Wunderground v.1.15,2013-03-08 13:38:00,
2013-03-08 08:44:00,29.5,28.0,30.04,NNE,26,4.0,13.0,94,0.00,,,0.00,Wunderground v.1.15,2013-03-08 13:44:00,
2013-03-08 08:50:00,29.7,28.2,30.04,NE,44,5.0,13.0,94,0.00,,,0.00,Wunderground v.1.15,2013-03-08 13:50:00,
2013-03-08 08:56:00,29.7,28.2,30.04,WSW,253,6.0,13.0,94,0.00,,,0.00,Wunderground v.1.15,2013-03-08 13:56:00,
2013-03-08 09:02:00,29.7,28.2,30.04,NNW,336,4.0,13.0,94,0.00,,,0.00,Wunderground v.1.15,2013-03-08 14:02:00,
2013-03-08 09:08:00,29.8,28.3,30.04,NW,309,3.0,3.0,94,0.00,,,0.00,Wunderground v.1.15,2013-03-08 14:08:00,
2013-03-08 09:14:00,29.8,28.3,30.04,NW,306,5.0,13.0,94,0.00,,,0.00,Wunderground v.1.15,2013-03-08 14:14:00,
2013-03-08 09:20:00,29.8,28.3,30.04,NNE,16,5.0,13.0,94,0.00,,,0.00,Wunderground v.1.15,2013-03-08 14:20:00,
2013-03-08 09:26:00,29.8,28.3,30.05,NNW,338,5.0,13.0,94,0.00,,,0.00,Wunderground v.1.15,2013-03-08 14:26:00,
2013-03-08 09:32:00,29.8,28.3,30.05,North,5,5.0,13.0,94,0.00,,,0.00,Wunderground v.1.15,2013-03-08 14:32:00,
2013-03-08 09:38:00,29.8,28.3,30.05,NNE,17,5.0,13.0,94,0.00,,,0.00,Wunderground v.1.15,2013-03-08 14:38:00,
2013-03-08 09:44:00,30.0,28.5,30.05,NNE,22,6.0,13.0,94,0.00,,,0.00,Wunderground v.1.15,2013-03-08 14:44:00,
2013-03-08 09:50:00,30.0,28.5,30.05,NNW,346,4.0,13.0,94,0.00,,,0.00,Wunderground v.1.15,2013-03-08 14:50:00,
2013-03-08 09:56:00,30.1,28.6,30.05,NNW,347,4.0,13.0,94,0.00,,,0.00,Wunderground v.1.15,2013-03-08 14:56:00,
2013-03-08 10:02:00,30.1,28.6,30.05,NNE,31,4.0,13.0,94,0.00,,,0.00,Wunderground v.1.15,2013-03-08 15:02:00,
2013-03-08 10:08:00,30.3,28.8,30.05,WNW,292,3.0,3.0,94,0.00,,,0.00,Wunderground v.1.15,2013-03-08 15:08:00,
2013-03-08 10:14:00,30.3,28.8,30.05,NNE,27,3.0,13.0,94,0.00,,,0.00,Wunderground v.1.15,2013-03-08 15:14:00,
2013-03-08 10:20:00,30.3,28.8,30.05,NNE,18,5.0,13.0,94,0.00,,,0.00,Wunderground v.1.15,2013-03-08 15:20:00,
2013-03-08 10:26:00,30.4,28.9,30.05,NW,325,5.0,13.0,94,0.00,,,0.00,Wunderground v.1.15,2013-03-08 15:26:00,
2013-03-08 10:32:00,30.4,28.9,30.05,North,360,5.0,13.0,94,0.00,,,0.00,Wunderground v.1.15,2013-03-08 15:32:00,
2013-03-08 10:38:00,30.4,28.9,30.06,NNW,348,4.0,4.0,94,0.00,,,0.00,Wunderground v.1.15,2013-03-08 15:38:00,
2013-03-08 10:44:00,30.6,29.1,30.06,NW,311,3.0,13.0,94,0.00,,,0.00,Wunderground v.1.15,2013-03-08 15:44:00,
2013-03-08 10:50:00,30.6,29.1,30.06,NNE,29,4.0,13.0,94,0.00,,,0.00,Wunderground v.1.15,2013-03-08 15:50:00,
2013-03-08 10:56:00,30.7,29.2,30.06,North,350,5.0,13.0,94,0.00,,,0.00,Wunderground v.1.15,2013-03-08 15:56:00,
2013-03-08 11:02:00,30.7,29.2,30.06,North,9,5.0,13.0,94,0.00,,,0.00,Wunderground v.1.15,2013-03-08 16:02:00,
2013-03-08 11:08:00,30.9,29.4,30.06,NW,324,4.0,13.0,94,0.00,,,0.00,Wunderground v.1.15,2013-03-08 16:08:00,
2013-03-08 11:14:00,31.0,29.5,30.06,NNW,344,4.0,13.0,94,0.00,,,0.00,Wunderground v.1.15,2013-03-08 16:14:00,
2013-03-08 11:20:00,31.0,29.2,30.06,NW,311,5.0,6.0,93,0.00,,,0.00,Wunderground v.1.15,2013-03-08 16:20:00,
2013-03-08 11:26:00,31.2,29.4,30.06,NE,45,5.0,13.0,93,0.00,,,0.00,Wunderground v.1.15,2013-03-08 16:26:00,
2013-03-08 11:32:00,31.3,29.5,30.06,WNW,294,5.0,13.0,93,0.00,,,0.00,Wunderground v.1.15,2013-03-08 16:32:00,
2013-03-08 11:38:00,31.3,29.5,30.06,North,360,5.0,5.0,93,0.00,,,0.00,Wunderground v.1.15,2013-03-08 16:38:00,
2013-03-08 11:44:00,31.5,29.7,30.06,North,5,4.0,13.0,93,0.00,,,0.00,Wunderground v.1.15,2013-03-08 16:44:00,
2013-03-08 11:50:00,31.5,29.7,30.06,NW,304,4.0,13.0,93,0.00,,,0.00,Wunderground v.1.15,2013-03-08 16:50:00,
2013-03-08 11:56:00,31.6,29.8,30.06,NNE,16,4.0,13.0,93,0.00,,,0.00,Wunderground v.1.15,2013-03-08 16:56:00,
2013-03-08 12:02:00,31.6,29.5,30.06,North,350,5.0,13.0,92,0.00,,,0.00,Wunderground v.1.15,2013-03-08 17:02:00,
2013-03-08 12:08:00,31.6,29.5,30.06,NNE,15,5.0,13.0,92,0.00,,,0.00,Wunderground v.1.15,2013-03-08 17:08:00,
2013-03-08 12:14:00,31.8,29.7,30.06,NNE,27,7.0,13.0,92,0.00,,,0.00,Wunderground v.1.15,2013-03-08 17:14:00,
2013-03-08 12:20:00,31.9,29.8,30.05,NNW,333,7.0,17.0,92,0.00,,,0.00,Wunderground v.1.15,2013-03-08 17:20:00,
2013-03-08 12:26:00,32.1,30.0,30.05,NNE,22,8.0,17.0,92,0.00,,,0.01,Wunderground v.1.15,2013-03-08 17:26:00,
2013-03-08 12:32:00,32.2,30.1,30.05,NNE,24,8.0,13.0,92,0.00,,,0.01,Wunderground v.1.15,2013-03-08 17:32:00,
2013-03-08 12:38:00,32.2,29.9,30.05,NNE,26,7.0,13.0,91,0.00,,,0.01,Wunderground v.1.15,2013-03-08 17:38:00,
2013-03-08 12:44:00,32.4,30.1,30.05,North,355,5.0,13.0,91,0.00,,,0.01,Wunderground v.1.15,2013-03-08 17:44:00,
2013-03-08 12:50:00,32.5,30.2,30.05,NNE,25,4.0,13.0,91,0.00,,,0.01,Wunderground v.1.15,2013-03-08 17:50:00,
2013-03-08 12:56:00,32.5,30.2,30.05,NE,46,6.0,13.0,91,0.00,,,0.01,Wunderground v.1.15,2013-03-08 17:56:00,
2013-03-08 13:02:00,32.7,30.4,30.05,North,9,5.0,13.0,91,0.00,,,0.01,Wunderground v.1.15,2013-03-08 18:02:00,
2013-03-08 13:08:00,32.7,30.4,30.05,NNW,342,5.0,5.0,91,0.00,,,0.01,Wunderground v.1.15,2013-03-08 18:08:00,
2013-03-08 13:14:00,32.8,30.2,30.04,WSW,244,7.0,13.0,90,0.00,,,0.01,Wunderground v.1.15,2013-03-08 18:14:00,
2013-03-08 13:20:00,32.8,30.2,30.05,NNW,329,9.0,20.0,90,0.00,,,0.01,Wunderground v.1.15,2013-03-08 18:20:00,
2013-03-08 13:26:00,32.9,30.3,30.05,NNE,19,10.0,20.0,90,0.00,,,0.01,Wunderground v.1.15,2013-03-08 18:26:00,
2013-03-08 13:32:00,33.1,30.5,30.06,North,360,8.0,13.0,90,0.00,,,0.01,Wunderground v.1.15,2013-03-08 18:32:00,
2013-03-08 13:38:00,33.1,30.5,30.07,NE,34,6.0,14.0,90,0.00,,,0.01,Wunderground v.1.15,2013-03-08 18:38:00,
2013-03-08 13:44:00,33.2,30.6,30.07,ENE,66,7.0,14.0,90,0.00,,,0.02,Wunderground v.1.15,2013-03-08 18:44:00,
2013-03-08 13:50:00,33.4,30.5,30.07,North,350,7.0,13.0,89,0.00,,,0.02,Wunderground v.1.15,2013-03-08 18:50:00,
2013-03-08 13:56:00,33.5,30.6,30.07,North,11,7.0,13.0,89,0.00,,,0.02,Wunderground v.1.15,2013-03-08 18:56:00,
2013-03-08 14:02:00,33.5,30.6,30.08,ENE,60,6.0,13.0,89,0.00,,,0.02,Wunderground v.1.15,2013-03-08 19:02:00,
2013-03-08 14:08:00,33.7,30.8,30.08,North,360,6.0,13.0,89,0.00,,,0.03,Wunderground v.1.15,2013-03-08 19:08:00,
2013-03-08 14:14:00,33.8,30.9,30.08,NNW,336,7.0,13.0,89,0.00,,,0.03,Wunderground v.1.15,2013-03-08 19:14:00,
2013-03-08 14:20:00,34.0,30.8,30.08,NNE,22,8.0,11.0,88,0.00,,,0.03,Wunderground v.1.15,2013-03-08 19:20:00,
2013-03-08 14:26:00,34.0,30.8,30.08,NE,38,6.0,13.0,88,0.00,,,0.03,Wunderground v.1.15,2013-03-08 19:26:00,
2013-03-08 14:32:00,34.1,30.6,30.09,NNW,346,7.0,13.0,87,0.00,,,0.03,Wunderground v.1.15,2013-03-08 19:32:00,
2013-03-08 14:38:00,34.1,30.4,30.08,NE,54,8.0,13.0,86,0.00,,,0.03,Wunderground v.1.15,2013-03-08 19:38:00,
2013-03-08 14:44:00,34.1,30.1,30.08,NNW,332,7.0,13.0,85,0.00,,,0.04,Wunderground v.1.15,2013-03-08 19:44:00,
2013-03-08 14:49:00,34.3,30.0,30.08,North,360,7.0,13.0,84,0.00,,,0.04,Wunderground v.1.15,2013-03-08 19:49:00,
2013-03-08 14:55:00,34.4,29.8,30.08,NNW,338,6.0,13.0,83,0.00,,,0.04,Wunderground v.1.15,2013-03-08 19:55:00,
2013-03-08 15:01:00,34.6,29.7,30.07,ENE,74,6.0,13.0,82,0.00,,,0.05,Wunderground v.1.15,2013-03-08 20:01:00,
2013-03-08 15:07:00,34.7,29.8,30.07,NNE,31,5.0,13.0,82,0.00,,,0.05,Wunderground v.1.15,2013-03-08 20:07:00,
2013-03-08 15:13:00,35.0,29.8,30.08,NNE,19,6.0,13.0,81,0.00,,,0.05,Wunderground v.1.15,2013-03-08 20:13:00,
2013-03-08 15:19:00,35.3,29.7,30.08,NNE,31,7.0,13.0,80,0.00,,,0.05,Wunderground v.1.15,2013-03-08 20:19:00,
2013-03-08 15:25:00,35.5,29.6,30.08,North,349,6.0,13.0,79,0.00,,,0.06,Wunderground v.1.15,2013-03-08 20:25:00,
2013-03-08 15:31:00,35.8,29.6,30.08,NNW,346,5.0,13.0,78,0.00,,,0.06,Wunderground v.1.15,2013-03-08 20:31:00,
2013-03-08 15:36:00,36.0,29.5,30.08,NNW,346,4.0,13.0,77,0.05,,,0.07,Wunderground v.1.15,2013-03-08 20:36:00,
2013-03-08 15:43:00,36.2,29.7,30.09,NNE,23,4.0,6.0,77,0.05,,,0.07,Wunderground v.1.15,2013-03-08 20:43:00,
2013-03-08 15:49:00,36.3,29.5,30.09,NNE,25,4.0,4.0,76,0.04,,,0.07,Wunderground v.1.15,2013-03-08 20:49:00,
2013-03-08 15:54:00,36.6,29.7,30.09,North,9,3.0,13.0,76,0.00,,,0.08,Wunderground v.1.15,2013-03-08 20:54:00,
2013-03-08 16:01:00,36.8,29.6,30.09,NNW,346,4.0,13.0,75,0.00,,,0.08,Wunderground v.1.15,2013-03-08 21:01:00,
2013-03-08 16:07:00,37.0,29.5,30.09,North,350,6.0,13.0,74,0.00,,,0.08,Wunderground v.1.15,2013-03-08 21:07:00,
2013-03-08 16:12:00,37.2,29.3,30.10,NNW,346,5.0,13.0,73,0.04,,,0.09,Wunderground v.1.15,2013-03-08 21:12:00,
2013-03-08 16:18:00,37.3,29.1,30.10,NNE,25,6.0,13.0,72,0.04,,,0.09,Wunderground v.1.15,2013-03-08 21:18:00,
2013-03-08 16:25:00,37.6,29.0,30.10,NNW,346,7.0,13.0,71,0.04,,,0.09,Wunderground v.1.15,2013-03-08 21:25:00,
2013-03-08 16:31:00,37.8,29.2,30.11,NNE,24,6.0,13.0,71,0.00,,,0.10,Wunderground v.1.15,2013-03-08 21:31:00,
2013-03-08 16:36:00,37.8,29.2,30.11,NE,35,5.0,13.0,71,0.00,,,0.10,Wunderground v.1.15,2013-03-08 21:36:00,
2013-03-08 16:42:00,37.8,29.2,30.11,NE,36,5.0,13.0,71,0.00,,,0.10,Wunderground v.1.15,2013-03-08 21:42:00,
2013-03-08 16:49:00,37.9,29.0,30.11,NW,313,5.0,5.0,70,0.00,,,0.11,Wunderground v.1.15,2013-03-08 21:49:00,
2013-03-08 16:54:00,38.0,29.4,30.11,NNE,26,5.0,13.0,71,0.00,,,0.11,Wunderground v.1.15,2013-03-08 21:54:00,
2013-03-08 17:00:00,38.0,29.1,30.12,NW,326,5.0,13.0,70,0.00,,,0.11,Wunderground v.1.15,2013-03-08 22:00:00,
2013-03-08 17:06:00,38.3,29.4,30.12,NE,46,6.0,13.0,70,0.00,,,0.11,Wunderground v.1.15,2013-03-08 22:06:00,
2013-03-08 17:12:00,38.3,29.4,30.12,NNE,17,5.0,13.0,70,0.00,,,0.11,Wunderground v.1.15,2013-03-08 22:12:00,
2013-03-08 17:18:00,38.5,29.2,30.12,North,351,5.0,13.0,69,0.00,,,0.11,Wunderground v.1.15,2013-03-08 22:18:00,
2013-03-08 17:24:00,38.6,29.3,30.13,NNE,28,7.0,13.0,69,0.00,,,0.12,Wunderground v.1.15,2013-03-08 22:24:00,
2013-03-08 17:30:00,38.8,29.5,30.13,North,360,5.0,13.0,69,0.00,,,0.12,Wunderground v.1.15,2013-03-08 22:30:00,
2013-03-08 17:36:00,38.8,29.5,30.13,NNW,333,4.0,13.0,69,0.00,,,0.12,Wunderground v.1.15,2013-03-08 22:36:00,
2013-03-08 17:42:00,38.8,29.5,30.14,North,351,5.0,16.0,69,0.00,,,0.12,Wunderground v.1.15,2013-03-08 22:42:00,
2013-03-08 17:48:00,38.9,29.2,30.14,North,360,5.0,5.0,68,0.00,,,0.13,Wunderground v.1.15,2013-03-08 22:48:00,
2013-03-08 17:54:00,38.9,29.2,30.15,North,9,5.0,13.0,68,0.00,,,0.13,Wunderground v.1.15,2013-03-08 22:54:00,
2013-03-08 18:00:00,39.1,29.4,30.15,North,349,4.0,13.0,68,0.00,,,0.13,Wunderground v.1.15,2013-03-08 23:00:00,
2013-03-08 18:06:00,39.1,29.1,30.15,North,355,5.0,13.0,67,0.00,,,0.13,Wunderground v.1.15,2013-03-08 23:06:00,
2013-03-08 18:12:00,39.2,29.2,30.16,ENE,64,5.0,13.0,67,0.00,,,0.13,Wunderground v.1.15,2013-03-08 23:12:00,
2013-03-08 18:18:00,39.1,28.3,30.16,North,351,4.0,4.0,65,0.00,,,0.13,Wunderground v.1.15,2013-03-08 23:18:00,
2013-03-08 18:24:00,39.1,29.1,30.16,NNW,340,6.0,13.0,67,0.00,,,0.14,Wunderground v.1.15,2013-03-08 23:24:00,
2013-03-08 18:30:00,39.1,29.1,30.17,NNE,21,5.0,13.0,67,0.00,,,0.14,Wunderground v.1.15,2013-03-08 23:30:00,
2013-03-08 18:36:00,39.1,29.1,30.17,NNE,33,4.0,13.0,67,0.00,,,0.14,Wunderground v.1.15,2013-03-08 23:36:00,
2013-03-08 18:42:00,38.9,28.9,30.17,North,360,5.0,13.0,67,0.00,,,0.14,Wunderground v.1.15,2013-03-08 23:42:00,
2013-03-08 18:48:00,38.9,28.9,30.17,North,360,4.0,4.0,67,0.00,,,0.14,Wunderground v.1.15,2013-03-08 23:48:00,
2013-03-08 18:54:00,38.8,28.8,30.17,NE,55,4.0,13.0,67,0.00,,,0.15,Wunderground v.1.15,2013-03-08 23:54:00,
2013-03-08 19:00:00,38.8,28.4,30.18,NE,44,5.0,13.0,66,0.00,,,0.15,Wunderground v.1.15,2013-03-09 00:00:00,
2013-03-08 19:06:00,38.8,28.4,30.18,NW,323,5.0,13.0,66,0.00,,,0.15,Wunderground v.1.15,2013-03-09 00:06:00,
2013-03-08 19:12:00,38.8,28.4,30.18,NNW,348,4.0,13.0,66,0.00,,,0.15,Wunderground v.1.15,2013-03-09 00:12:00,
2013-03-08 19:18:00,38.8,28.4,30.18,North,9,5.0,13.0,66,0.00,,,0.15,Wunderground v.1.15,2013-03-09 00:18:00,
2013-03-08 19:24:00,38.6,27.8,30.18,North,10,4.0,13.0,65,0.00,,,0.15,Wunderground v.1.15,2013-03-09 00:24:00,
2013-03-08 19:30:00,38.8,28.0,30.19,NNE,13,4.0,13.0,65,0.00,,,0.15,Wunderground v.1.15,2013-03-09 00:30:00,
2013-03-08 19:36:00,38.8,28.0,30.19,NNE,14,5.0,13.0,65,0.00,,,0.15,Wunderground v.1.15,2013-03-09 00:36:00,
2013-03-08 19:42:00,38.8,27.7,30.19,NNW,348,5.0,13.0,64,0.00,,,0.15,Wunderground v.1.15,2013-03-09 00:42:00,
2013-03-08 19:48:00,38.8,27.7,30.19,NW,315,5.0,5.0,64,0.00,,,0.16,Wunderground v.1.15,2013-03-09 00:48:00,
2013-03-08 19:54:00,38.8,27.7,30.18,NNE,26,5.0,13.0,64,0.00,,,0.16,Wunderground v.1.15,2013-03-09 00:54:00,
2013-03-08 20:00:00,38.6,27.5,30.19,ESE,103,5.0,13.0,64,0.00,,,0.16,Wunderground v.1.15,2013-03-09 01:00:00,
2013-03-08 20:06:00,38.6,27.1,30.20,North,360,5.0,13.0,63,0.00,,,0.16,Wunderground v.1.15,2013-03-09 01:06:00,
2013-03-08 20:12:00,38.6,26.7,30.20,ENE,68,6.0,13.0,62,0.00,,,0.16,Wunderground v.1.15,2013-03-09 01:12:00,
2013-03-08 20:18:00,38.6,26.3,30.20,NE,38,5.0,13.0,61,0.00,,,0.16,Wunderground v.1.15,2013-03-09 01:18:00,
2013-03-08 20:24:00,38.6,25.9,30.21,NNE,15,5.0,13.0,60,0.00,,,0.16,Wunderground v.1.15,2013-03-09 01:24:00,
2013-03-08 20:30:00,38.6,25.9,30.21,NNW,340,6.0,13.0,60,0.00,,,0.16,Wunderground v.1.15,2013-03-09 01:30:00,
2013-03-08 20:36:00,38.5,25.4,30.21,NNE,26,5.0,13.0,59,0.00,,,0.16,Wunderground v.1.15,2013-03-09 01:36:00,
2013-03-08 20:42:00,38.5,25.4,30.21,NNW,327,7.0,15.0,59,0.00,,,0.16,Wunderground v.1.15,2013-03-09 01:42:00,
2013-03-08 20:48:00,38.3,25.6,30.21,NNE,13,6.0,6.0,60,0.00,,,0.16,Wunderground v.1.15,2013-03-09 01:48:00,
2013-03-08 20:54:00,38.2,25.1,30.21,NE,49,6.0,13.0,59,0.00,,,0.17,Wunderground v.1.15,2013-03-09 01:54:00,
2013-03-08 21:00:00,38.2,25.1,30.21,WNW,288,6.0,13.0,59,0.00,,,0.17,Wunderground v.1.15,2013-03-09 02:00:00,
2013-03-08 21:06:00,38.0,24.9,30.22,WNW,286,6.0,13.0,59,0.00,,,0.17,Wunderground v.1.15,2013-03-09 02:06:00,
2013-03-08 21:12:00,37.9,24.8,30.22,NNE,29,5.0,13.0,59,0.00,,,0.17,Wunderground v.1.15,2013-03-09 02:12:00,
2013-03-08 21:18:00,37.8,24.7,30.22,NE,41,4.0,13.0,59,0.00,,,0.17,Wunderground v.1.15,2013-03-09 02:18:00,
2013-03-08 21:24:00,37.8,24.7,30.22,NNE,21,6.0,13.0,59,0.00,,,0.17,Wunderground v.1.15,2013-03-09 02:24:00,
2013-03-08 21:30:00,37.6,24.1,30.22,NNW,348,5.0,13.0,58,0.00,,,0.17,Wunderground v.1.15,2013-03-09 02:30:00,
2013-03-08 21:36:00,37.5,24.1,30.22,NNW,331,5.0,13.0,58,0.00,,,0.17,Wunderground v.1.15,2013-03-09 02:36:00,
2013-03-08 21:42:00,37.3,23.4,30.22,NE,41,6.0,15.0,57,0.00,,,0.17,Wunderground v.1.15,2013-03-09 02:42:00,
2013-03-08 21:48:00,37.2,23.8,30.23,North,9,7.0,7.0,58,0.00,,,0.17,Wunderground v.1.15,2013-03-09 02:48:00,
2013-03-08 21:54:00,37.0,23.6,30.23,NNW,331,5.0,13.0,58,0.00,,,0.17,Wunderground v.1.15,2013-03-09 02:54:00,
2013-03-08 22:00:00,36.8,23.8,30.23,NNE,21,4.0,5.0,59,0.00,,,0.17,Wunderground v.1.15,2013-03-09 03:00:00,
2013-03-08 22:06:00,36.6,24.0,30.22,NNE,19,4.0,13.0,60,0.00,,,0.17,Wunderground v.1.15,2013-03-09 03:06:00,
2013-03-08 22:12:00,36.3,23.7,30.23,NE,48,5.0,13.0,60,0.00,,,0.17,Wunderground v.1.15,2013-03-09 03:12:00,
2013-03-08 22:18:00,36.2,23.6,30.23,NNE,22,5.0,5.0,60,0.00,,,0.17,Wunderground v.1.15,2013-03-09 03:18:00,
2013-03-08 22:24:00,36.0,23.8,30.23,NNW,331,4.0,13.0,61,0.00,,,0.17,Wunderground v.1.15,2013-03-09 03:24:00,
2013-03-08 22:30:00,35.9,23.7,30.23,North,351,4.0,7.0,61,0.00,,,0.17,Wunderground v.1.15,2013-03-09 03:30:00,
2013-03-08 22:36:00,35.8,23.7,30.23,North,351,3.0,13.0,61,0.00,,,0.17,Wunderground v.1.15,2013-03-09 03:36:00,
2013-03-08 22:42:00,35.6,23.9,30.23,North,9,3.0,13.0,62,0.00,,,0.17,Wunderground v.1.15,2013-03-09 03:42:00,
2013-03-08 22:48:00,35.3,23.6,30.23,NNW,346,3.0,3.0,62,0.00,,,0.17,Wunderground v.1.15,2013-03-09 03:48:00,
2013-03-08 22:54:00,35.2,23.9,30.23,North,360,2.0,13.0,63,0.00,,,0.17,Wunderground v.1.15,2013-03-09 03:54:00,
2013-03-08 23:00:00,34.9,23.6,30.23,NNW,336,3.0,13.0,63,0.00,,,0.17,Wunderground v.1.15,2013-03-09 04:00:00,
2013-03-08 23:06:00,34.9,23.9,30.23,North,360,4.0,13.0,64,0.00,,,0.17,Wunderground v.1.15,2013-03-09 04:06:00,
2013-03-08 23:12:00,34.7,23.8,30.23,NNE,19,4.0,13.0,64,0.00,,,0.17,Wunderground v.1.15,2013-03-09 04:12:00,
2013-03-08 23:18:00,34.6,23.7,30.23,NNE,22,3.0,3.0,64,0.00,,,0.17,Wunderground v.1.15,2013-03-09 04:18:00,
2013-03-08 23:24:00,34.6,23.7,30.23,NW,325,4.0,13.0,64,0.00,,,0.17,Wunderground v.1.15,2013-03-09 04:24:00,
2013-03-08 23:30:00,34.6,23.7,30.23,North,360,5.0,6.0,64,0.00,,,0.17,Wunderground v.1.15,2013-03-09 04:30:00,
2013-03-08 23:36:00,34.4,23.5,30.23,NE,45,4.0,13.0,64,0.00,,,0.17,Wunderground v.1.15,2013-03-09 04:36:00,
2013-03-08 23:42:00,34.3,23.4,30.23,NE,40,3.0,13.0,64,0.00,,,0.17,Wunderground v.1.15,2013-03-09 04:42:00,
2013-03-08 23:48:00,34.3,23.4,30.23,North,349,3.0,3.0,64,0.00,,,0.17,Wunderground v.1.15,2013-03-09 04:48:00,
2013-03-08 23:55:00,34.1,23.2,30.23,North,351,3.0,13.0,64,0.00,,,0.17,Wunderground v.1.15,2013-03-09 04:55:00,